Pellston, MI

11:20 PM EST on January 22, 2018 (GMT -0500)
Pellston Regional Airport Of Emmet County

Weather History for KPLN - June, 2013

Change the Weather History Date:

Tuesday, June 4, 2013

  Actual Average Record
Temperature  
Mean Temperature 47 °F -  
Max Temperature 66 °F 73 °F 87 °F (1971)
Min Temperature 30 °F 44 °F 25 °F (1964)
Degree Days  
Heating Degree Days 18    
Moisture  
Dew Point 33 °F    
Average Humidity 56    
Maximum Humidity 92    
Minimum Humidity 29    
Precipitation  
Precipitation 0.00 in - - ()
Sea Level Pressure  
Sea Level Pressure 30.21 in    
Wind  
Wind Speed 2 mph (NW)    
Max Wind Speed 9 mph    
Max Gust Speed -    
Visibility 10 miles    
Events      
Averages and records for this station are not official NWS values.
T = Trace of Precipitation, MM = Missing Value Source: NWS Daily Summary

Daily Weather History Graph

Daily Weather History Graph

Search for Another Location

Airport or City:

Trip Planner

Search our weather history database for the weather conditions in past years. The results will help you decide how hot, cold, wet, or windy it might be!

Date:

Astronomy

Jun. 04, 2013 Rise Set
Actual Time 5:51 AM EDT 9:23 PM EDT
Civil Twilight 5:14 AM EDT 10:00 PM EDT
Nautical Twilight 4:25 AM EDT 10:50 PM EDT
Astronomical Twilight 3:21 AM EDT 11:55 PM EDT
Moon 3:31 AM EDT (6/4) 5:43 PM EDT (6/4)
Length of Visible Light 16h 46m
Length of Day
15h 31m
Waning Crescent, 14% of the Moon is Illuminated
Jun 4
Waning Crescent
Jun 8
New
Jun 16
First Quarter
Jun 23
Full
Jun 30
Last Quarter

Hourly Weather History & Observations

Time (EDT) Temp. Dew Point Humidity Pressure Visibility Wind Dir Wind Speed Gust Speed Precip Events Conditions
12:54 AM 37.0 °F 34.0 °F 89% 30.17 in 10.0 mi Calm Calm - N/A   Clear
1:54 AM 34.0 °F 32.0 °F 92% 30.18 in 10.0 mi Calm Calm - N/A   Clear
2:54 AM 33.1 °F 30.9 °F 92% 30.18 in 10.0 mi Calm Calm - N/A   Clear
3:54 AM 30.9 °F 28.9 °F 92% 30.17 in 10.0 mi Calm Calm - N/A   Clear
4:54 AM 30.9 °F 28.0 °F 89% 30.19 in 10.0 mi Calm Calm - N/A   Clear
5:54 AM 30.0 °F 28.0 °F 92% 30.20 in 10.0 mi Calm Calm - N/A   Clear
6:54 AM 33.1 °F 30.9 °F 92% 30.21 in 10.0 mi Calm Calm - N/A   Clear
7:54 AM 42.1 °F 37.0 °F 82% 30.23 in 10.0 mi Calm Calm - N/A   Clear
8:54 AM 52.0 °F 34.0 °F 50% 30.24 in 10.0 mi WNW 5.8 mph - N/A   Clear
9:54 AM 55.9 °F 30.9 °F 39% 30.25 in 10.0 mi West 4.6 mph - N/A   Clear
10:54 AM 59.0 °F 30.9 °F 35% 30.22 in 10.0 mi North 5.8 mph - N/A   Clear
11:54 AM 62.1 °F 33.1 °F 34% 30.22 in 10.0 mi NNW 5.8 mph - N/A   Clear
12:54 PM 63.0 °F 30.0 °F 29% 30.22 in 10.0 mi SW 3.5 mph - N/A   Clear
1:54 PM 63.0 °F 30.9 °F 30% 30.22 in 10.0 mi Variable 6.9 mph - N/A   Clear
2:54 PM 63.0 °F 30.9 °F 30% 30.22 in 10.0 mi NW 4.6 mph - N/A   Clear
3:54 PM 64.0 °F 32.0 °F 30% 30.23 in 10.0 mi NNW 9.2 mph - N/A   Clear
4:54 PM 63.0 °F 30.0 °F 29% 30.22 in 10.0 mi WSW 3.5 mph - N/A   Clear
5:54 PM 63.0 °F 32.0 °F 31% 30.21 in 10.0 mi WNW 3.5 mph - N/A   Clear
6:54 PM 62.1 °F 33.1 °F 34% 30.21 in 10.0 mi NW 3.5 mph - N/A   Clear
7:54 PM 62.1 °F 36.0 °F 38% 30.20 in 10.0 mi North 4.6 mph - N/A   Clear
8:54 PM 57.0 °F 37.0 °F 47% 30.21 in 10.0 mi WNW 4.6 mph - N/A   Mostly Cloudy
9:54 PM 55.0 °F 35.1 °F 47% 30.22 in 10.0 mi WNW 3.5 mph - N/A   Overcast
10:54 PM 53.1 °F 37.0 °F 55% 30.23 in 10.0 mi Calm Calm - N/A   Overcast
11:54 PM 50.0 °F 39.9 °F 68% 30.22 in 10.0 mi Calm Calm - N/A   Overcast